Change the Weather History Date:

Sunday, December 9, 2012

  Actual Average Record
Temperature  
Mean Temperature 38 °F -  
Max Temperature 41 °F 38 °F 56 °F (1991)
Min Temperature 35 °F 25 °F 5 °F (1977)
Degree Days  
Heating Degree Days 27    
Moisture  
Dew Point 32 °F    
Average Humidity 79    
Maximum Humidity 93    
Minimum Humidity 65    
Precipitation  
Precipitation 0.10 in - - ()
Sea Level Pressure  
Sea Level Pressure 29.97 in    
Wind  
Wind Speed 7 mph (ENE)    
Max Wind Speed 14 mph    
Max Gust Speed 22 mph    
Visibility 6 miles    
Events Fog , Rain    
Averages and records for this station are not official NWS values.
T = Trace of Precipitation, MM = Missing Value Source: NWS Daily Summary

Daily Weather History Graph

Daily Weather History Graph

Search for Another Location

Airport or City:

Trip Planner

Search our weather history database for the weather conditions in past years. The results will help you decide how hot, cold, wet, or windy it might be!

Date:

Astronomy

Dec. 09, 2012 Rise Set
Actual Time 7:51 AM EST 5:01 PM EST
Civil Twilight 7:19 AM EST 5:33 PM EST
Nautical Twilight 6:44 AM EST 6:08 PM EST
Astronomical Twilight 6:10 AM EST 6:42 PM EST
Moon 3:19 AM EST (12/9) 2:10 PM EST (12/9)
Length of Visible Light 10h 13m
Length of Day
9h 10m
Waning Crescent, 19% of the Moon is Illuminated
Dec 9
Waning Crescent
Dec 13
New
Dec 20
First Quarter
Dec 28
Full
Jan 4
Last Quarter

Hourly Weather History & Observations

Time (EST) Temp. Windchill Dew Point Humidity Pressure Visibility Wind Dir Wind Speed Gust Speed Precip Events Conditions
12:53 AM 36.0 °F 32.1 °F 28.9 °F 76% 30.19 in 10.0 mi NE 4.6 mph - N/A   Overcast
1:03 AM 35.6 °F 31.7 °F 28.4 °F 75% 30.17 in 10.0 mi NNE 4.6 mph - N/A   Mostly Cloudy
1:33 AM 35.6 °F 30.7 °F 28.4 °F 75% 30.17 in 10.0 mi NE 5.8 mph - N/A   Overcast
1:53 AM 36.0 °F 30.3 °F 28.9 °F 76% 30.19 in 10.0 mi ENE 6.9 mph - N/A   Overcast
2:11 AM 35.6 °F 31.7 °F 28.4 °F 75% 30.18 in 10.0 mi ENE 4.6 mph - N/A   Overcast
2:53 AM 37.0 °F 30.4 °F 28.0 °F 70% 30.18 in 10.0 mi ENE 9.2 mph - N/A   Overcast
3:53 AM 36.0 °F 31.1 °F 28.0 °F 73% 30.18 in 10.0 mi East 5.8 mph - N/A   Overcast
4:50 AM 35.6 °F 30.7 °F 28.4 °F 75% 30.15 in 10.0 mi ENE 5.8 mph - N/A   Overcast
4:53 AM 36.0 °F 31.1 °F 28.9 °F 76% 30.17 in 10.0 mi ENE 5.8 mph - N/A   Overcast
5:53 AM 36.0 °F 31.1 °F 30.0 °F 79% 30.18 in 10.0 mi East 5.8 mph - N/A   Overcast
7:33 AM 37.4 °F 29.8 °F 26.6 °F 65% 30.14 in 10.0 mi East 11.5 mph - N/A   Overcast
7:53 AM 37.0 °F 28.9 °F 27.0 °F 67% 30.15 in 10.0 mi ENE 12.7 mph - N/A   Overcast
8:07 AM 37.4 °F 28.9 °F 28.4 °F 70% 30.13 in 10.0 mi ENE 13.8 mph - N/A   Overcast
8:35 AM 37.4 °F 28.9 °F 28.4 °F 70% 30.13 in 10.0 mi East 13.8 mph - N/A   Overcast
8:53 AM 37.9 °F 30.5 °F 28.0 °F 68% 30.13 in 10.0 mi East 11.5 mph 19.6 mph N/A   Overcast
9:53 AM 39.0 °F 31.0 °F 30.0 °F 70% 30.10 in 10.0 mi East 13.8 mph - N/A   Mostly Cloudy
10:53 AM 39.9 °F 32.5 °F 30.9 °F 70% 30.07 in 10.0 mi East 12.7 mph - N/A   Overcast
11:43 AM 39.2 °F 32.5 °F 32.0 °F 75% 30.03 in 10.0 mi ENE 10.4 mph - N/A   Overcast
11:53 AM 39.9 °F 34.5 °F 32.0 °F 73% 30.03 in 10.0 mi ENE 8.1 mph - N/A   Overcast
12:53 PM 39.9 °F 33.4 °F 34.0 °F 79% 29.99 in 5.0 mi East 10.4 mph - 0.01 in Rain Light Rain
1:22 PM 39.2 °F 33.0 °F 35.6 °F 87% 29.95 in 2.0 mi ENE 9.2 mph - 0.03 in Rain Light Rain
1:43 PM 41.0 °F 33.9 °F 35.6 °F 81% 29.93 in 2.5 mi East 12.7 mph - 0.05 in Rain Light Rain
1:53 PM 41.0 °F 33.5 °F 36.0 °F 82% 29.94 in 4.0 mi East 13.8 mph - 0.05 in Rain Light Rain
2:53 PM 39.0 °F 31.8 °F 34.0 °F 82% 29.89 in 8.0 mi East 11.5 mph - 0.02 in   Overcast
3:53 PM 37.9 °F 30.0 °F 34.0 °F 86% 29.87 in 5.0 mi East 12.7 mph 21.9 mph 0.00 in Rain Light Rain
4:43 PM 39.2 °F 33.0 °F 33.8 °F 81% 29.83 in 2.0 mi East 9.2 mph - 0.00 in Rain Light Rain
4:53 PM 39.0 °F 32.8 °F 34.0 °F 82% 29.85 in 2.5 mi East 9.2 mph - 0.00 in Rain Light Rain
5:01 PM 39.2 °F 33.6 °F 35.6 °F 87% 29.83 in 4.0 mi ENE 8.1 mph - 0.00 in   Overcast
5:27 PM 37.4 °F 31.4 °F 33.8 °F 87% 29.82 in 5.0 mi NE 8.1 mph - 0.00 in   Overcast
5:53 PM 37.0 °F 31.6 °F 34.0 °F 89% 29.82 in 4.0 mi ENE 6.9 mph - 0.00 in   Overcast
6:02 PM 37.4 °F 31.4 °F 33.8 °F 87% 29.80 in 2.0 mi ENE 8.1 mph - N/A   Overcast
6:22 PM 37.4 °F 32.8 °F 33.8 °F 87% 29.80 in 1.8 mi NE 5.8 mph - 0.01 in   Overcast
6:53 PM 37.0 °F 31.6 °F 33.1 °F 86% 29.80 in 1.5 mi NNE 6.9 mph - 0.01 in   Overcast
7:53 PM 37.0 °F 34.5 °F 33.1 °F 86% 29.76 in 1.2 mi NNE 3.5 mph - N/A   Overcast
8:53 PM 37.0 °F 34.5 °F 34.0 °F 89% 29.73 in 1.5 mi ENE 3.5 mph - 0.01 in   Overcast
9:53 PM 37.0 °F - 35.1 °F 93% 29.71 in 1.0 mi Calm Calm - N/A   Overcast
10:12 PM 37.4 °F - 33.8 °F 87% 29.68 in 0.8 mi Calm Calm - N/A   Mist
10:53 PM 37.9 °F - 34.0 °F 86% 29.67 in 0.5 mi Calm Calm - N/A Fog Fog
11:04 PM 37.4 °F - 33.8 °F 87% 29.65 in 0.2 mi Calm Calm - N/A Fog Fog
11:53 PM 37.0 °F 33.3 °F 34.0 °F 89% 29.65 in 0.2 mi NNW 4.6 mph - 0.00 in Fog , Rain Light Rain